Lexington Weather

Lexington, Massachusetts, USA

54°F
12/10/2019 4:12pm 
  • Lexington Conditions: Light rain, Overcast
  • Temperature: 54.1°F / 12.3°CColder 0.9°F than last hour.
  • Dew Point: 52.5°FDecreased 0.6°Fsince last hour.
  • Relative Humidity: 94%Increased 1.0% since last hour.
  • Wind: Wind from WSW WSW 2 mph, 10-min avg: 3 mph, gust: 9 mph
  • Barometer: 29.69 in Steady
  • Visibility: 10 miles
  • Rain Today: 0.04 in
  •   

Regional Weather Roundup
for Boston / Norton, MA

        
000
ASUS41 KBOX 090600
RWRBOX

REGIONAL WEATHER ROUNDUP
NATIONAL WEATHER SERVICE BOSTON/NORTON MA
100 AM EST MON DEC 09 2019

NOTE:  "FAIR" INDICATES FEW OR NO CLOUDS BELOW 12,000 FEET WITH NO 
SIGNIFICANT WEATHER AND/OR OBSTRUCTIONS TO VISIBILITY.

MAZALL-090700-
EASTERN MASSACHUSETTS
  
CITY           SKY/WX    TMP DP  RH WIND       PRES   REMARKS
BOSTON         CLOUDY    43  32  65 SW20      30.30F                  
6HR MIN TEMP:  35; 6HR MAX TEMP:  43;                                

BEVERLY        FAIR      42  32  67 SW15G22   30.28F                  
LAWRENCE       FAIR      34  27  75 S5        30.29F WCI  30          
BEDFORD        FAIR      39  30  70 S16       30.27F WCI  30          
BLUE HILL        N/A     38  32  79 S23G33    30.27F WCI  27          
NORWOOD        FAIR      44  32  62 S9        30.31F                  
MARSHFIELD     NOT AVBL                                               
PLYMOUTH       FAIR      43  35  73 SW13G21   30.34S                  
TAUNTON        FAIR      28  26  92 SE5       30.33F WCI  23          
NEW BEDFORD    FAIR      44  35  70 S13       30.34S                  
$$

MAZALL-090700-
CAPE COD AND THE ISLANDS
  
CITY           SKY/WX    TMP DP  RH WIND       PRES   REMARKS
FALMOUTH       NOT AVBL                                               
HYANNIS        NOT AVBL                                               
CHATHAM        FAIR      43  37  79 S8        30.38F                  
PROVINCETOWN   FAIR      44  38  79 S17G24    30.35S                  
NANTUCKET      FAIR      45  39  79 S12       30.38F                  
MARTHAS VNYRD  FAIR      46  37  71 S15       30.37F                  
$$
 
MAZALL-090700-
CENTRAL AND WESTERN MASSACHUSETTS
  
CITY           SKY/WX    TMP DP  RH WIND       PRES   REMARKS
WORCESTER      FAIR      32  28  85 SW14      30.26F WCI  22          
6HR MIN TEMP:  27; 6HR MAX TEMP:  33;                                

FITCHBURG      FAIR      39  31  72 SW14G22   30.27F WCI  31          
ORANGE         MOCLDY    37  31  78 S13       30.27F WCI  29          
SPRINGFIELD    CLOUDY    32  28  84 S9        30.29F WCI  25          
WESTFIELD      CLOUDY    30  24  78 S3        30.30F                  
NORTH ADAMS    CLOUDY    39  29  67 SW15G31   30.22S WCI  31          
PITTSFIELD     CLOUDY    37  29  72 S10G20    30.21F WCI  30          
$$
 
RIZALL-090700-
RHODE ISLAND
  
CITY           SKY/WX    TMP DP  RH WIND       PRES   REMARKS
PROVIDENCE     FAIR      34  31  88 CALM      30.33F                  
6HR MIN TEMP:  28; 6HR MAX TEMP:  35;                                

NEWPORT        FAIR      47  37  68 S12G21    30.33F                  
BLOCK ISLAND   FAIR      47  39  74 S18G28    30.32F                  
SMITHFIELD     FAIR      36  32  85 VRB3      30.31F                  
WESTERLY       FAIR      49  39  68 S10       30.33F                  
$$
 
CTZALL-090700-
CONNECTICUT
  
CITY           SKY/WX    TMP DP  RH WIND       PRES   REMARKS
BRADLEY INTL   CLOUDY    32  22  66 S3        30.31F                  
6HR MIN TEMP:  28; 6HR MAX TEMP:  35;                                

HARTFORD       CLOUDY    29  25  85 CALM      30.32F                  
BRIDGEPORT     CLOUDY    38  33  82 CALM      30.32F                  
DANBURY        CLOUDY    31  28  89 N3        30.32F                  
GROTON         NOT AVBL                                               
NEW HAVEN      CLOUDY    40  36  86 CALM      30.32F                  
CHESTER        MOCLDY    41  37  87 SW5       30.31S                  
MERIDEN        CLOUDY    28  27  96 CALM      30.32F                  
WILLIMANTIC    MOCLDY    22  18  85 CALM      30.34F                  
OXFORD         CLOUDY    35  33  92 SW3       30.30F                  
$$

MEZ002-015-021-024-NHZ003-005-008-011-012-014-VTZ005-008-090700-
NORTHERN NEW ENGLAND
  
CITY           SKY/WX    TMP DP  RH WIND       PRES   REMARKS
PORTLAND ME    CLOUDY    36  24  62 SW6       30.28F WCI  31          
6HR MIN TEMP:  35; 6HR MAX TEMP:  36;                                

BANGOR ME      MOCLDY    37  29  72 S16G25    30.22S WCI  28          
CONCORD NH     CLOUDY    31  23  72 CALM      30.25F                  
MANCHESTER NH  CLOUDY    35  28  75 S7        30.24F WCI  29          
NASHUA NH      FAIR      35  31  85 SE5       30.26F WCI  31          
PORTSMOUTH NH  CLOUDY    34  27  74 S6        30.26F WCI  29          
JAFFREY NH     CLOUDY    36  50 100 SW10G22   30.22F WCI  28          
KEENE NH       CLOUDY    36  31  82 VRB7      30.25F WCI  30          
BURLINGTON VT  CLOUDY    36  22  56 S25G36    30.11F WCI  24          
MT. WASHINGTON NOT AVBL                                               
$$

NYZ052-076-090700-
EASTERN NEW YORK
  
CITY           SKY/WX    TMP DP  RH WIND       PRES   REMARKS
ALBANY         CLOUDY    38  25  59 S13       30.22F WCI  30          
6HR MIN TEMP:  34; 6HR MAX TEMP:  38;                                

NEW YORK CITY  LGT RAIN  43  37  79 SW5       30.31F                  
6HR MIN TEMP:  40; 6HR MAX TEMP:  44; 6HR PCP:  0.01;                

$$
 
ANZALL-090700-
MARINE OBSERVATIONS
  
STATION/POSITION TIME  TEMP    WIND        PRES    VSBY  WAVE
                       AIR SEA DIR/SP/G                  HT/PER
                 (UTC) (F)     (DEG/KT/KT) (MB)    (MI)  (FT/S)
BOSTON BUOY      0450   42 47  190/ 17/ 21 1026.1          2/ 4
BUZZARDS BAY     0500   47     200/ 23/ 25 1028.1F
NANTUCKET SOUND  0540      42              1028.6
MASS BAY-STELLWA 0504   42 46  230/ 19/ 21 1024.8F  1 7/8  5/ 5
ISLE OF SHOALS   0500   38     220/ 22/ 27 1025.4F
S OF BLOCK IS    0530      51                N/A           5/ 5
$$

......................KEY.........................
  SKY/WX - SKY CONDITION/PRESENT WEATHER
  TMP    - TEMPERATURE IN FAHRENHEIT
  DWPT   - DEWPOINT IN FAHRENHEIT
  RH     - RELATIVE HUMIDITY IN PERCENT
  WIND   - DIRECTION AND SPEED IN MPH
  PRES   - MEAN SEA LEVEL PRESSURE IN INCHES OF HG
  WCI    - WIND CHILL INDEX
  VSB    - VISIBILITY IN MILES
  HX     - HEAT INDEX
  TC     - TEMPERATURE IN CELSIUS
  VRB    - VARIABLE WIND DIRECTION
  N/A    - NOT AVAILABLE
  
      

Other recent Regional Weather Roundups

Tue Dec 10, 4:01pm

Tue Dec 10, 3:10pm

Tue Dec 10, 3:01pm

Tue Dec 10, 2:10pm

Tue Dec 10, 2:01pm

Tue Dec 10, 1:10pm

Tue Dec 10, 1:00pm

Tue Dec 10, 12:10pm

Tue Dec 10, 12:00pm

Tue Dec 10, 11:10am

Tue Dec 10, 11:00am

Tue Dec 10, 10:10am

Tue Dec 10, 10:00am

Tue Dec 10, 9:10am

Tue Dec 10, 9:01am

Tue Dec 10, 8:10am

Tue Dec 10, 8:00am

Tue Dec 10, 7:10am

Tue Dec 10, 7:00am

Tue Dec 10, 6:10am

Tue Dec 10, 6:00am

Tue Dec 10, 5:10am

Tue Dec 10, 5:00am

Tue Dec 10, 4:10am

Tue Dec 10, 4:00am

Tue Dec 10, 3:10am

Tue Dec 10, 3:00am

Tue Dec 10, 2:10am

Tue Dec 10, 2:01am

Tue Dec 10, 1:10am

Tue Dec 10, 1:00am

Tue Dec 10, 12:10am

Tue Dec 10, 12:01am

Mon Dec 9, 11:10pm

Mon Dec 9, 11:01pm

Mon Dec 9, 10:10pm

Mon Dec 9, 10:00pm

Mon Dec 9, 9:10pm

Mon Dec 9, 9:01pm

Mon Dec 9, 8:10pm

Mon Dec 9, 8:01pm

Mon Dec 9, 7:10pm

Mon Dec 9, 7:00pm

Mon Dec 9, 6:10pm

Mon Dec 9, 6:00pm

Mon Dec 9, 5:10pm

Mon Dec 9, 5:01pm

Mon Dec 9, 4:10pm

Mon Dec 9, 4:01pm

Mon Dec 9, 3:10pm

Mon Dec 9, 3:01pm

Mon Dec 9, 2:10pm

Mon Dec 9, 2:00pm

Mon Dec 9, 1:10pm

Mon Dec 9, 1:00pm

Mon Dec 9, 12:10pm

Mon Dec 9, 12:00pm

Mon Dec 9, 11:10am

Mon Dec 9, 11:00am

Mon Dec 9, 10:10am

Mon Dec 9, 10:00am

Mon Dec 9, 9:10am

Mon Dec 9, 9:00am

Mon Dec 9, 8:10am

Mon Dec 9, 8:00am

Mon Dec 9, 7:10am

Mon Dec 9, 7:00am

Mon Dec 9, 6:10am

Mon Dec 9, 6:00am

Mon Dec 9, 5:10am

Mon Dec 9, 5:00am

Mon Dec 9, 4:10am

Mon Dec 9, 4:00am

Mon Dec 9, 3:10am

Mon Dec 9, 3:00am

Mon Dec 9, 2:10am

Mon Dec 9, 2:00am

Mon Dec 9, 1:10am

Mon Dec 9, 12:10am

Mon Dec 9, 12:00am

Sun Dec 8, 11:10pm

Sun Dec 8, 11:00pm

Sun Dec 8, 10:10pm

Sun Dec 8, 10:01pm

Sun Dec 8, 9:10pm

Sun Dec 8, 9:01pm

Sun Dec 8, 8:10pm

Sun Dec 8, 8:00pm

Sun Dec 8, 7:10pm

Sun Dec 8, 7:00pm

Sun Dec 8, 6:10pm

Sun Dec 8, 6:01pm

Sun Dec 8, 5:10pm

Sun Dec 8, 5:00pm

Sun Dec 8, 4:10pm

Sun Dec 8, 4:01pm

Sun Dec 8, 3:10pm

Sun Dec 8, 3:01pm

Sun Dec 8, 2:10pm

Sun Dec 8, 2:01pm

Sun Dec 8, 1:10pm

Sun Dec 8, 1:00pm

Sun Dec 8, 12:10pm

Sun Dec 8, 12:01pm

Sun Dec 8, 11:10am

Sun Dec 8, 11:00am

Sun Dec 8, 10:10am

Sun Dec 8, 10:01am

Sun Dec 8, 9:10am

Sun Dec 8, 9:00am

Sun Dec 8, 8:10am

Sun Dec 8, 8:00am

Sun Dec 8, 7:10am

Sun Dec 8, 7:00am

Sun Dec 8, 6:10am

Sun Dec 8, 6:00am

Sun Dec 8, 5:10am

Sun Dec 8, 5:00am

Sun Dec 8, 4:10am

Sun Dec 8, 4:00am

Sun Dec 8, 3:10am

Sun Dec 8, 3:00am

Sun Dec 8, 2:10am

Sun Dec 8, 2:00am

Sun Dec 8, 1:10am

Sun Dec 8, 1:00am

Sun Dec 8, 12:10am

Sun Dec 8, 12:01am

Sat Dec 7, 11:10pm

Sat Dec 7, 11:00pm

Sat Dec 7, 10:10pm

Sat Dec 7, 10:00pm

Sat Dec 7, 9:10pm

Sat Dec 7, 9:00pm

Sat Dec 7, 8:10pm

Sat Dec 7, 8:00pm

Sat Dec 7, 7:10pm

Sat Dec 7, 7:00pm

Sat Dec 7, 6:10pm

Sat Dec 7, 6:00pm

Sat Dec 7, 5:10pm

Sat Dec 7, 5:00pm

Sat Dec 7, 4:10pm

Meta data:

ID: 3fafb6d1-4c7d-420a-867e-a804c3606b5d
Link: https://api.weather.gov/products/3fafb6d1-4c7d-420a-867e-a804c3606b5d